Location: Banios
(43.0451°N, 0.2335°E)
Time: 13:53:59
(UTC+00:00)

Cosmos 1315 Rocket - Pass Details

Date: 25 January 2021
Orbit: 529 x 567 km, 81.2° (Epoch: 25 February)

Event Time Altitude Azimuth Distance (km) Brightness Sun altitude
Rises 05:52:03 0° 181° (S) 2,660 6.4 -16.2°
Reaches altitude 10° 05:54:12 10° 178° (S) 1,773 5.6 -15.8°
Maximum altitude 05:58:03 62° 97° (E) 599 3.2 -15.1°
Drops below altitude 10° 06:01:55 10° 17° (NNE) 1,787 5.5 -14.5°
Sets 06:04:06 0° 14° (NNE) 2,684 6.4 -14.1°
